Temperature
8 8 7 7 7 7 7 6 6 6 6 5 5 5 5 5 4 4 4 4 4 3 3 3 2 1 1 0 0 -0 -0 -0 -0 -1 -1 -0 -0 -0 0 0 1 1 2
8 7 7 7 7 6 6 6 6 5 5 5 5 5 4 4 4 4 4 3 3 3 2 2 1 1 0 -0 -0 -1 -1 -1 -1 -1 -1 -1 -1 -1 -1 -1 -0 0 1
8 7 7 7 7 6 6 6 5 5 5 5 5 4 4 4 4 3 3 3 3 2 2 1 1 0 -0 -1 -1 -1 -2 -2 -2 -2 -2 -2 -2 -2 -1 -1 -1 -1 -0
8 7 7 7 7 6 6 6 5 5 5 5 4 4 4 4 3 3 3 2 2 2 1 1 0 -0 -1 -1 -2 -2 -2 -2 -2 -2 -2 -2 -2 -2 -2 -2 -2 -1 -1
8 8 7 7 7 6 6 6 5 5 5 4 4 4 3 3 3 3 2 2 2 1 1 0 -0 -1 -1 -2 -2 -2 -3 -3 -3 -3 -3 -2 -2 -2 -2 -2 -2 -2 -1
9 8 8 7 7 6 6 6 5 5 5 4 3 3 3 3 3 2 2 2 1 1 0 -0 -1 -1 -1 -2 -3 -3 -3 -3 -3 -3 -3 -3 -3 -3 -3 -2 -2 -2 -2
9 9 8 8 7 7 6 6 5 5 4 4 3 2 2 2 2 2 2 2 1 1 -0 -1 -1 -2 -2 -2 -3 -3 -4 -4 -4 -4 -3 -3 -3 -3 -3 -3 -2 -2 -2
9 9 9 8 8 7 6 6 5 5 4 3 3 2 1 1 2 2 1 1 1 0 -0 -1 -1 -2 -3 -3 -3 -3 -4 -4 -4 -4 -4 -4 -4 -3 -3 -3 -3 -3 -2
9 9 9 8 8 7 7 6 6 5 4 3 3 2 1 1 1 -0 -0 -0 0 -0 -1 -1 -2 -2 -3 -4 -4 -4 -4 -5 -5 -5 -4 -4 -4 -4 -4 -3 -3 -3 -3
9 9 8 8 7 7 6 6 5 5 4 3 2 2 1 1 0 -1 -1 -1 -1 -1 -1 -2 -2 -2 -3 -4 -4 -4 -5 -5 -5 -5 -5 -5 -4 -4 -4 -4 -4 -3 -3
9 8 8 7 6 6 5 5 4 4 4 3 3 2 1 -0 -1 -1 -2 -2 -2 -2 -2 -2 -2 -3 -3 -4 -4 -4 -5 -5 -5 -5 -5 -5 -5 -5 -5 -4 -4 -4 -4
8 8 7 6 6 5 4 4 3 2 2 2 2 2 1 0 0 -1 -2 -2 -2 -2 -2 -3 -3 -3 -3 -4 -4 -5 -5 -5 -5 -5 -5 -5 -5 -5 -5 -5 -5 -5 -4
7 7 6 6 5 5 4 3 2 1 1 1 1 1 1 1 1 0 -1 -2 -3 -3 -3 -3 -2 -3 -4 -4 -4 -5 -5 -5 -6 -6 -6 -6 -6 -6 -6 -6 -5 -5 -5
7 6 5 5 5 4 3 2 1 1 0 0 -0 -0 -0 0 -0 -0 -1 -2 -4 -4 -4 -3 -2 -3 -4 -4 -5 -5 -6 -6 -6 -6 -6 -6 -6 -6 -6 -6 -6 -6 -5
7 6 5 4 4 3 3 2 1 0 -0 -1 -1 -1 -1 -1 -1 -1 -2 -2 -3 -5 -5 -4 -3 -3 -4 -5 -5 -6 -6 -6 -6 -6 -6 -6 -6 -6 -6 -6 -6 -6 -6
7 6 5 4 3 3 2 1 0 -0 -1 -1 -2 -2 -2 -2 -2 -2 -3 -3 -3 -4 -6 -5 -3 -3 -4 -5 -5 -6 -6 -6 -7 -6 -7 -7 -7 -7 -7 -7 -7 -6 -6
7 6 5 4 4 3 2 1 0 -1 -1 -2 -2 -3 -3 -3 -3 -3 -3 -4 -4 -5 -6 -5 -4 -4 -5 -5 -5 -6 -6 -7 -7 -7 -7 -7 -7 -7 -7 -7 -7 -7 -7
7 6 5 4 3 2 2 1 0 -1 -2 -2 -3 -3 -4 -4 -4 -4 -4 -4 -5 -5 -5 -6 -5 -5 -5 -5 -6 -6 -6 -7 -7 -7 -7 -7 -7 -7 -7 -7 -7 -7 -7
7 6 5 4 3 2 1 1 -0 -1 -2 -2 -3 -3 -4 -4 -4 -5 -5 -5 -5 -5 -6 -7 -6 -6 -6 -6 -6 -7 -7 -7 -7 -7 -7 -7 -7 -7 -8 -7 -7 -7 -7
6 5 5 4 3 2 1 0 -1 -1 -2 -3 -3 -4 -4 -4 -5 -5 -5 -5 -5 -6 -6 -7 -7 -7 -7 -6 -7 -7 -7 -7 -7 -7 -8 -8 -8 -8 -8 -8 -8 -8 -8
5 5 4 3 2 1 1 -0 -1 -2 -2 -3 -4 -4 -4 -5 -5 -5 -6 -5 -5 -6 -6 -7 -8 -8 -7 -7 -7 -7 -7 -7 -8 -8 -8 -8 -8 -8 -8 -9 -9 -9 -8
4 4 3 3 2 1 0 -1 -2 -3 -3 -3 -4 -4 -5 -5 -6 -6 -6 -6 -6 -6 -6 -7 -7 -8 -7 -7 -7 -7 -8 -8 -8 -8 -8 -9 -9 -9 -9 -9 -9 -9 -9
3 3 2 2 1 1 -1 -2 -3 -4 -4 -4 -5 -5 -5 -6 -6 -6 -6 -6 -6 -6 -6 -6 -7 -7 -7 -7 -7 -7 -8 -8 -8 -8 -9 -9 -9 -9 -9 -9 -9 -9 -9
2 2 1 1 0 -0 -1 -3 -3 -4 -4 -5 -5 -5 -6 -6 -6 -6 -6 -6 -6 -6 -6 -7 -7 -7 -7 -7 -7 -7 -8 -8 -8 -9 -9 -10 -9 -10 -10 -9 -9 -9 -9
1 1 0 -0 -1 -1 -2 -3 -4 -4 -5 -5 -5 -6 -6 -6 -6 -6 -7 -6 -6 -6 -6 -7 -7 -7 -7 -7 -8 -8 -8 -9 -9 -9 -9 -10 -10 -10 -10 -10 -9 -9 -9
0 -0 -0 -1 -1 -2 -2 -3 -4 -4 -5 -5 -5 -6 -6 -6 -6 -6 -6 -6 -6 -6 -6 -7 -7 -7 -8 -8 -8 -8 -8 -9 -10 -10 -10 -10 -11 -11 -11 -10 -10 -10 -10
Wind_Speed
11 12 13 14 14 13 12 10 10 8 6 5 5 5 5 6 7 7 8 10 12 13 14 14 15 15 16 17 18 18 19 20 20 21 21 22 22 23 24 25 26 26 27
15 13 12 12 13 14 13 12 10 7 6 6 6 6 7 8 8 9 9 10 12 14 14 14 15 16 16 17 18 19 20 20 21 21 22 22 23 23 24 25 25 27 28
18 15 11 11 14 15 14 11 10 7 5 5 5 8 9 10 9 10 11 11 11 13 15 15 15 16 17 18 19 19 20 21 21 22 23 23 24 24 25 25 26 27 27
21 17 11 10 16 16 14 8 5 5 5 5 5 5 8 8 10 12 14 13 13 13 14 16 16 17 18 19 19 20 21 21 22 23 24 24 25 26 26 27 27 27 28
23 19 14 14 17 14 11 8 6 6 6 6 6 6 5 6 9 13 13 14 15 15 15 16 18 18 19 20 20 21 22 22 23 23 24 25 26 27 27 28 28 29 29
24 21 15 16 17 9 8 7 8 7 6 5 6 6 6 5 8 10 12 14 15 16 16 17 17 17 19 20 21 22 22 23 23 24 25 26 27 27 28 29 29 30 30
24 22 15 14 14 10 11 10 8 8 8 5 3 4 6 9 11 9 11 11 12 15 17 17 17 17 18 20 21 22 23 24 24 25 26 26 27 28 29 30 30 31 31
24 24 17 11 12 11 12 13 10 8 8 8 5 3 4 5 9 12 8 8 9 13 14 17 18 18 19 19 20 23 24 25 25 26 26 27 28 29 30 31 31 32 32
24 23 21 16 12 13 14 15 13 14 11 10 8 6 5 7 3 3 8 8 8 7 9 14 17 19 20 19 20 23 25 26 26 27 27 28 29 30 31 31 32 33 33
21 24 21 20 14 13 14 15 16 12 10 9 8 9 6 5 4 3 4 6 9 9 8 11 14 17 19 19 21 23 25 26 27 28 28 29 30 31 32 32 33 34 34
17 20 21 17 15 14 15 14 15 14 14 12 8 6 8 6 5 5 5 5 6 7 8 8 11 14 18 19 20 22 26 27 28 28 29 30 30 31 32 33 34 34 35
13 17 17 16 15 14 15 15 14 16 15 14 11 9 7 6 8 8 10 7 6 6 7 7 8 11 16 18 21 25 26 27 28 28 29 30 31 32 33 34 34 35 36
12 15 17 18 17 16 13 13 15 15 16 15 16 13 12 10 6 8 9 7 7 6 6 6 7 12 16 17 19 25 25 27 27 29 30 31 32 32 33 34 35 36 37
12 12 17 18 19 17 17 15 15 15 14 16 18 16 12 12 10 10 9 7 6 6 7 8 5 9 14 15 18 23 21 26 28 29 30 31 32 33 34 35 36 37 38
10 12 15 17 18 18 18 17 16 17 15 16 16 16 14 11 10 9 9 9 8 7 8 7 6 7 10 13 18 18 18 25 29 30 31 32 33 34 34 35 36 37 38
12 12 13 15 16 17 18 17 15 14 17 16 14 15 16 12 10 10 10 9 10 10 8 7 8 6 7 13 19 19 18 26 30 31 32 32 33 34 35 35 36 37 38
13 14 14 15 16 18 18 19 19 17 19 18 16 17 17 14 12 11 10 10 11 11 14 10 8 7 9 10 13 16 20 20 22 30 32 32 33 34 35 35 36 37 38
13 14 14 15 16 17 18 20 20 20 20 20 19 17 18 15 16 13 12 13 13 12 12 13 10 8 10 10 10 12 14 19 18 26 30 32 33 33 34 34 35 36 36
12 13 13 15 16 16 16 18 19 19 20 20 19 19 18 17 18 15 14 14 13 12 10 11 12 9 9 9 11 13 14 11 17 23 26 28 30 32 33 34 35 35 36
12 12 13 14 14 14 14 15 17 18 18 18 18 19 18 19 19 18 16 16 13 12 11 11 12 11 11 9 9 11 11 9 11 14 19 24 27 31 32 33 34 34 34
12 11 12 13 12 12 13 14 15 16 17 17 17 18 19 23 26 22 17 15 14 13 12 12 12 11 12 10 10 9 11 10 10 10 10 12 13 13 15 26 30 32 33
11 11 12 12 13 13 22 27 20 15 16 17 17 16 18 24 29 33 33 29 23 17 15 14 12 13 13 11 9 9 9 11 12 6 9 12 10 12 11 10 25 32 33
11 11 12 12 13 16 25 27 29 17 16 16 16 15 16 19 26 19 25 31 28 30 26 17 15 15 13 10 9 10 11 12 14 8 9 15 10 13 12 17 29 31 32
10 11 11 12 12 15 24 26 27 19 15 16 16 16 17 16 18 19 17 17 17 17 19 16 13 13 12 10 10 12 13 13 12 9 8 14 12 12 14 11 25 29 29
10 10 10 11 12 14 22 25 25 11 12 15 16 17 18 17 26 29 19 17 17 16 21 26 24 22 24 25 19 10 9 11 13 9 5 9 12 13 12 12 16 24 25
10 10 10 10 11 11 18 23 24 10 12 12 13 16 25 24 27 29 19 16 17 15 11 12 16 18 16 16 22 12 8 10 12 10 5 6 9 9 9 8 8 9 13
Wind_Direction
191 194 201 201 200 203 199 214 230 227 218 236 247 258 272 284 288 292 295 300 306 310 313 314 317 318 320 321 321 322 323 323 323 323 324 325 325 325 324 324 324 323 322
193 197 198 202 203 206 204 209 222 221 221 226 238 254 261 266 270 273 278 283 291 296 299 301 304 307 309 312 313 314 315 316 317 318 318 318 318 318 318 318 318 317 317
197 196 196 199 203 206 206 208 223 220 224 227 230 242 247 250 257 266 270 269 270 278 285 288 292 295 299 302 305 306 308 309 311 312 312 313 314 314 313 313 313 312 311
201 197 196 201 201 201 199 197 205 201 215 218 225 234 235 237 244 253 257 257 255 255 264 276 283 287 291 295 297 299 301 303 305 306 307 308 309 310 310 309 309 308 307
202 200 198 201 200 197 194 200 197 199 209 215 220 226 228 234 241 249 246 245 246 244 246 259 272 279 284 288 290 292 295 297 299 302 303 304 305 306 306 306 305 305 304
202 202 203 201 198 194 195 197 201 200 204 208 227 237 233 231 238 239 239 241 240 239 241 243 252 265 275 281 284 287 290 292 294 297 299 300 301 302 302 302 302 302 300
201 203 205 203 201 200 200 197 193 200 205 191 208 261 256 239 236 233 228 226 229 234 236 235 239 245 256 269 277 283 286 288 290 293 295 296 297 298 298 298 299 299 299
203 206 206 204 203 203 202 200 196 196 200 188 178 197 262 264 234 229 214 214 220 226 230 235 236 238 242 249 260 273 280 284 286 288 291 293 294 295 296 297 298 298 297
207 208 209 208 206 205 209 205 199 196 203 199 188 176 196 227 256 232 216 217 216 216 223 231 235 238 241 244 249 262 272 277 281 284 287 290 292 294 295 296 296 297 297
214 212 210 210 210 210 211 209 206 202 194 201 203 209 203 176 185 253 263 227 221 224 225 235 242 239 239 242 248 259 267 273 278 281 285 288 292 294 295 295 296 296 296
218 217 214 212 214 215 214 210 209 205 206 204 198 190 212 220 199 197 239 240 235 230 227 227 235 238 240 241 245 254 265 271 275 279 283 287 290 293 294 295 295 295 294
219 218 216 216 217 218 216 213 211 210 210 210 208 199 187 189 203 206 222 225 232 237 233 229 231 237 242 245 250 261 267 271 274 278 282 285 288 291 292 293 293 292 291
225 219 216 219 220 219 216 212 214 215 212 210 212 213 209 208 188 193 209 221 229 235 239 239 232 239 247 246 249 262 267 271 275 279 282 284 286 288 289 290 290 290 290
231 218 215 218 219 217 218 215 218 218 216 216 217 215 216 214 207 202 203 204 229 237 233 240 238 235 244 245 252 264 267 271 276 279 281 283 285 286 287 288 289 289 288
235 220 215 217 217 216 216 215 221 220 218 219 219 217 219 217 212 210 207 202 208 231 237 231 235 233 240 251 260 265 261 268 275 278 280 283 284 285 286 287 287 287 286
237 229 221 218 216 216 215 217 221 218 218 220 218 218 219 218 215 213 213 213 214 224 239 225 229 239 255 265 267 268 265 273 277 279 281 283 284 284 285 285 285 285 285
237 235 229 223 219 218 215 217 220 216 220 221 219 218 220 213 214 215 214 217 221 223 242 246 244 248 250 257 268 268 269 268 269 275 278 281 282 283 284 285 285 285 284
239 237 233 230 226 222 217 218 220 219 219 220 218 217 219 215 215 215 216 220 224 224 232 246 250 249 250 253 259 263 269 269 265 273 278 280 282 284 285 285 286 285 284
244 239 234 234 232 228 221 220 220 220 220 220 217 217 217 213 217 217 218 222 225 229 229 239 251 251 255 256 260 265 264 264 268 273 277 281 282 284 285 286 286 286 284
248 243 240 238 235 230 225 221 220 220 220 219 218 217 216 215 217 218 220 222 223 227 230 237 248 253 256 253 254 261 266 258 264 271 276 278 280 283 285 286 286 286 285
254 248 244 242 237 232 229 222 219 220 220 220 219 218 217 219 221 222 223 221 221 225 229 235 243 250 253 252 251 253 265 269 263 262 269 272 276 275 277 280 283 284 284
261 255 249 245 241 238 242 239 231 222 221 221 221 219 220 227 230 231 231 228 223 224 227 231 239 244 248 245 250 257 265 274 278 245 259 274 272 275 274 269 278 282 283
263 259 254 247 246 243 246 247 243 229 221 222 221 219 223 225 228 230 236 237 236 233 231 229 238 242 246 245 248 258 260 264 271 269 277 282 276 276 277 280 284 285 286
267 264 258 251 248 247 251 250 248 239 225 222 220 219 222 224 224 224 226 231 237 240 240 238 239 245 247 247 243 253 263 269 271 265 261 280 284 282 283 280 285 285 288
276 270 264 255 251 251 253 253 250 238 229 224 221 220 221 223 228 229 225 227 233 237 244 246 247 251 255 259 259 261 261 273 281 277 250 268 282 287 284 280 280 285 290
278 276 271 260 254 250 253 255 251 237 232 229 224 223 225 225 228 231 226 223 230 232 229 241 249 256 258 261 265 258 249 264 276 282 247 255 281 295 292 272 269 284 291
Height
1547 1547 1547 1547 1547 1548 1548 1548 1548 1547 1547 1547 1546 1546 1545 1544 1543 1542 1541 1540 1539 1538 1537 1536 1535 1534 1533 1532 1531 1530 1528 1527 1526 1525 1523 1522 1520 1519 1518 1516 1515 1513 1512
1542 1543 1543 1543 1544 1544 1544 1544 1544 1544 1544 1543 1543 1542 1542 1541 1540 1539 1538 1537 1536 1535 1533 1532 1531 1530 1529 1528 1527 1526 1524 1523 1522 1520 1519 1517 1516 1515 1513 1512 1510 1509 1507
1537 1538 1538 1539 1540 1540 1540 1540 1540 1540 1540 1539 1539 1538 1537 1537 1536 1535 1534 1532 1531 1530 1529 1528 1527 1526 1525 1524 1523 1521 1520 1519 1517 1515 1514 1512 1511 1510 1508 1507 1506 1504 1503
1532 1532 1533 1534 1535 1535 1535 1535 1535 1535 1535 1534 1534 1533 1532 1531 1531 1530 1529 1528 1526 1525 1524 1523 1522 1521 1520 1519 1518 1517 1515 1514 1512 1511 1509 1507 1506 1504 1503 1501 1500 1499 1497
1525 1526 1526 1528 1529 1529 1529 1529 1529 1529 1529 1528 1528 1527 1526 1526 1525 1524 1523 1522 1521 1520 1519 1518 1517 1516 1515 1514 1513 1511 1510 1509 1507 1506 1504 1502 1500 1498 1497 1495 1494 1493 1491
1517 1519 1520 1521 1522 1521 1521 1522 1522 1522 1523 1522 1521 1520 1520 1519 1519 1518 1517 1516 1515 1514 1513 1512 1511 1510 1508 1508 1507 1506 1505 1503 1502 1500 1498 1496 1494 1493 1491 1489 1488 1486 1485
1509 1510 1511 1512 1513 1513 1513 1515 1515 1515 1515 1516 1515 1513 1512 1512 1511 1510 1510 1509 1508 1508 1507 1505 1504 1503 1502 1501 1500 1499 1498 1497 1496 1494 1492 1490 1488 1486 1485 1483 1481 1480 1478
1500 1501 1502 1503 1504 1504 1505 1505 1506 1506 1507 1508 1508 1507 1505 1503 1500 1501 1502 1502 1502 1501 1500 1499 1498 1496 1495 1494 1493 1492 1491 1490 1489 1488 1486 1484 1482 1480 1478 1476 1474 1472 1470
1491 1491 1492 1493 1494 1494 1494 1495 1496 1497 1497 1498 1498 1499 1497 1494 1494 1493 1493 1494 1494 1494 1493 1492 1491 1490 1488 1487 1486 1485 1484 1482 1481 1480 1479 1477 1475 1473 1471 1469 1466 1464 1462
1482 1482 1482 1483 1483 1484 1484 1485 1486 1487 1488 1487 1488 1487 1488 1489 1489 1486 1485 1485 1486 1486 1486 1485 1484 1483 1482 1480 1479 1478 1476 1475 1474 1473 1471 1469 1467 1465 1463 1460 1458 1456 1454
1473 1473 1473 1473 1473 1473 1473 1475 1475 1476 1476 1477 1477 1477 1478 1479 1479 1479 1476 1476 1477 1477 1477 1477 1476 1475 1474 1473 1472 1470 1469 1468 1466 1465 1463 1461 1459 1456 1454 1451 1449 1447 1445
1464 1463 1463 1463 1463 1462 1463 1464 1465 1466 1466 1466 1468 1467 1466 1467 1466 1467 1466 1466 1467 1468 1469 1469 1468 1467 1466 1465 1464 1463 1462 1460 1459 1457 1455 1452 1450 1447 1445 1442 1440 1437 1435
1455 1453 1454 1453 1452 1452 1453 1454 1454 1454 1455 1454 1455 1455 1455 1455 1456 1458 1459 1457 1458 1458 1459 1459 1460 1459 1458 1457 1456 1455 1454 1453 1451 1449 1446 1444 1441 1438 1436 1433 1430 1428 1425
1447 1446 1445 1443 1442 1442 1442 1443 1443 1443 1444 1443 1444 1445 1445 1445 1446 1447 1448 1450 1449 1449 1449 1449 1450 1450 1450 1449 1448 1447 1445 1444 1442 1440 1438 1435 1432 1429 1426 1424 1421 1418 1415
1440 1439 1437 1434 1432 1432 1432 1432 1431 1431 1432 1433 1433 1434 1435 1435 1437 1438 1439 1440 1442 1439 1437 1439 1441 1441 1441 1440 1439 1438 1436 1435 1433 1431 1429 1426 1423 1420 1417 1414 1411 1408 1405
1431 1429 1427 1425 1423 1422 1421 1421 1420 1420 1421 1420 1422 1424 1424 1425 1427 1429 1430 1431 1431 1430 1427 1427 1430 1432 1432 1431 1430 1429 1427 1426 1424 1422 1419 1417 1414 1411 1407 1404 1401 1397 1394
1421 1418 1417 1415 1412 1411 1410 1409 1408 1408 1409 1409 1411 1412 1413 1416 1417 1419 1420 1421 1422 1422 1418 1418 1421 1422 1422 1421 1420 1419 1418 1415 1413 1411 1409 1407 1404 1401 1398 1394 1390 1387 1383
1411 1408 1406 1404 1402 1400 1399 1397 1396 1396 1397 1397 1399 1401 1402 1406 1407 1409 1410 1411 1412 1412 1411 1409 1411 1412 1412 1412 1410 1409 1408 1406 1404 1401 1399 1397 1394 1391 1387 1384 1380 1376 1372
1401 1398 1396 1393 1391 1390 1388 1387 1386 1385 1385 1386 1388 1389 1391 1395 1396 1398 1400 1401 1402 1403 1403 1402 1401 1402 1402 1402 1401 1399 1398 1396 1394 1392 1390 1387 1384 1380 1377 1373 1369 1365 1361
1392 1388 1385 1383 1381 1379 1378 1377 1376 1375 1375 1375 1377 1378 1380 1383 1385 1388 1390 1391 1393 1394 1395 1394 1393 1393 1392 1392 1392 1390 1388 1386 1384 1382 1379 1377 1373 1370 1366 1362 1358 1354 1350
1382 1379 1375 1372 1370 1369 1367 1367 1366 1365 1365 1366 1367 1368 1370 1373 1375 1379 1380 1382 1384 1384 1385 1385 1384 1384 1383 1383 1383 1382 1379 1376 1373 1372 1368 1365 1362 1357 1353 1349 1346 1342 1338
1373 1369 1365 1362 1359 1357 1357 1357 1356 1355 1355 1355 1356 1357 1360 1363 1366 1369 1371 1373 1374 1375 1375 1375 1375 1374 1373 1374 1375 1373 1371 1368 1363 1362 1359 1353 1352 1346 1341 1338 1334 1331 1327
1363 1359 1355 1352 1349 1347 1347 1347 1347 1345 1343 1344 1345 1347 1350 1352 1356 1358 1361 1364 1365 1366 1366 1367 1366 1365 1365 1366 1366 1364 1362 1359 1354 1352 1350 1342 1340 1335 1331 1327 1324 1320 1316
1355 1350 1347 1343 1340 1338 1338 1337 1337 1337 1335 1334 1335 1337 1340 1342 1345 1349 1351 1353 1354 1356 1358 1359 1358 1357 1358 1358 1358 1356 1353 1350 1346 1344 1342 1335 1329 1325 1320 1316 1313 1309 1306
1347 1343 1339 1335 1332 1329 1329 1328 1328 1327 1326 1325 1326 1327 1330 1332 1336 1340 1342 1343 1344 1345 1348 1349 1350 1350 1350 1350 1350 1349 1345 1342 1337 1333 1333 1328 1321 1316 1309 1305 1302 1300 1296
1339 1334 1330 1327 1324 1321 1320 1319 1320 1318 1317 1316 1317 1318 1320 1323 1326 1330 1332 1333 1334 1336 1339 1340 1341 1341 1341 1341 1341 1341 1338 1335 1330 1324 1322 1320 1314 1310 1300 1294 1292 1290 1287